This demonstration page uses our WeatherBlox Daily Observations layout. Learn more.

Left ArrowRight Arrow

Hourly Observations for March 29, 2020

Temp ( °F °C ) Dew Point ( °F °C ) Humidity (%) Winds ( mph kmh ) Pressure ( in mb ) Visibility ( mi km ) Precip ( " mm )
12:56 am 00:56 Cloudy 43 6.3 37 2.7 78 78 NW 23 37 29.67 1005 10 16 0.00 0.00
1:26 am 01:26 Cloudy 45 7 37 3 76 76 NW 21 33 29.69 1005 10 16 0.00 0.00
1:56 am 01:56 Cloudy 44 6.9 37 3 76 76 WNW 20 31 29.70 1006 10 16 0.00 0.00
2:11 am 02:11 Cloudy 45 7 37 3 76 76 NW 24 39 29.70 1006 10 16 0.00 0.00
2:56 am 02:56 Mostly Clear 44 6.8 36 2.1 72 72 WNW 22 35 29.71 1006 10 16 0.00 0.00
3:56 am 03:56 Clear 42 5.8 35 1.7 75 75 WNW 18 30 29.75 1007 10 16 0.00 0.00
4:56 am 04:56 Clear 42 5.4 33 0.8 73 73 WNW 16 26 29.78 1009 10 16 0.00 0.00
5:56 am 05:56 Clear 41 4.8 31 -0.6 68 68 WNW 12 19 29.82 1010 10 16 0.00 0.00
6:56 am 06:56 Clear 40 4.4 29 -1.6 65 65 WNW 13 20 29.87 1012 10 16 0.00 0.00
7:56 am 07:56 Sunny 40 4.6 28 -2.1 62 62 WNW 12 19 29.91 1013 10 16 0.00 0.00
8:56 am 08:56 Sunny 44 6.8 27 -2.9 50 50 NW 15 24 29.94 1014 10 16 0.00 0.00
9:56 am 09:56 Sunny 47 8.6 26 -3.6 42 42 NW 17 28 29.96 1015 10 16 0.00 0.00
10:56 am 10:56 Sunny 51 10.3 27 -2.7 40 40 WNW 17 28 29.99 1016 10 16 0.00 0.00
11:56 am 11:56 Sunny 54 12.1 25 -3.7 33 33 WNW 17 28 30.01 1016 10 16 0.00 0.00
12:56 pm 12:56 Sunny 56 13.6 30 -1.2 36 36 NW 17 28 30.02 1017 10 16 0.00 0.00
1:56 pm 13:56 Sunny 58 14.7 29 -1.4 33 33 WNW 22 35 30.03 1017 10 16 0.00 0.00
2:28 pm 14:28 Sunny 59 15 32 0 36 36 W 21 33 30.03 1017 10 16 0.00 0.00
2:56 pm 14:56 Sunny 61 15.9 33 0.4 35 35 NW 20 31 30.04 1017 10 16 0.00 0.00
3:56 pm 15:56 Sunny 62 16.5 34 1 35 35 NW 14 22 30.05 1018 10 16 0.00 0.00
4:00 pm 16:00 Sunny 61 16 34 1 36 36 NW 18 30 30.05 1018 10 16 0.00 0.00
4:56 pm 16:56 Sunny 62 16.8 33 0.8 34 34 NW 16 26 30.06 1018 10 16 0.00 0.00
4:59 pm 16:59 Sunny 63 17 34 1 34 34 NNW 17 28 30.06 1018 10 16 0.00 0.00
5:56 pm 17:56 Sunny 62 16.7 35 1.5 36 36 W 12 19 30.07 1018 10 16 0.00 0.00
6:02 pm 18:02 Sunny 63 17 36 2 37 37 NNW 15 24 30.07 1018 10 16 0.00 0.00
6:56 pm 18:56 Sunny 60 15.7 34 1 37 37 NNW 13 20 30.08 1019 10 16 0.00 0.00
8:56 pm 20:56 Clear 51 10.3 32 0 49 49 N 6 9 30.13 1020 10 16 0.00 0.00
9:56 pm 21:56 Clear 47 8.5 33 0.5 57 57 Calm 30.14 1021 10 16 0.00 0.00
10:56 pm 22:56 Clear 39 4.1 32 0.2 76 76 Calm 30.17 1022 10 16 0.00 0.00

Powered by AerisWeather